This is the latest recevied weather packets stored in our database for station/object KD4PMP. If no packets are shown the sender has not sent any weather packets the latest 10 day(s).
| Time | Temp. | Humidity | Pressure | Rain* | Wind** | Luminosity | Snow |
|---|---|---|---|---|---|---|---|
| 1788631151 | 35.56° C | 55% | 1011.9 hPa | 0 mm | - | - | - |
| 1788630545 | 35.56° C | 53% | 1011.9 hPa | 0 mm | - | - | - |
| 1788629939 | 36.11° C | 54% | 1012 hPa | 0 mm | - | - | - |
| 1788629332 | 35.56° C | 54% | 1012 hPa | 0 mm | - | - | - |
| 1788628726 | 35.56° C | 53% | 1012.1 hPa | 0 mm | - | - | - |
| 1788628120 | 35° C | 57% | 1012.3 hPa | 0 mm | - | - | - |
| 1788627513 | 35° C | 59% | 1012.4 hPa | 0 mm | - | - | - |
| 1788626907 | 34.44° C | 59% | 1012.5 hPa | 0 mm | - | - | - |
| 1788626301 | 33.89° C | 62% | 1012.6 hPa | 0 mm | - | - | - |
| 1788625694 | 33.33° C | 60% | 1012.8 hPa | 0 mm | - | - | - |
| 1788625088 | 33.89° C | 62% | 1012.8 hPa | 0 mm | - | - | - |
| 1788624481 | 33.33° C | 65% | 1013 hPa | 0 mm | - | - | - |
| 1788623875 | 33.33° C | 66% | 1013.2 hPa | 0 mm | - | - | - |
| 1788623269 | 32.22° C | 70% | 1013.2 hPa | 0 mm | - | - | - |
| 1788622662 | 31.67° C | 72% | 1013.3 hPa | 0 mm | - | - | - |
| 1788622056 | 31.11° C | 76% | 1013.3 hPa | 0 mm | - | - | - |
| 1788621449 | 30° C | 79% | 1013.4 hPa | 0 mm | - | - | - |
| 1788620843 | 29.44° C | 81% | 1013.5 hPa | 0 mm | - | - | - |
| 1788620237 | 28.33° C | 83% | 1013.4 hPa | 0 mm | - | - | - |
| 1788619630 | 27.22° C | 85% | 1013.4 hPa | 0 mm | - | - | - |
| 1788619024 | 27.22° C | 87% | 1013.5 hPa | 0 mm | - | - | - |
| 1788618418 | 26.67° C | 87% | 1013.4 hPa | 0 mm | - | - | - |
| 1788617812 | 26.67° C | 89% | 1013.5 hPa | 0 mm | - | - | - |
| 1788617205 | 26.11° C | 90% | 1013.5 hPa | 0 mm | - | - | - |
| 1788616599 | 25.56° C | 91% | 1013.4 hPa | 0 mm | - | - | - |
* Rain latest hour (hover to see other rain measurements)
** Current wind speed in m/s (hover to see current wind gust speed)